timestamp,wind_dir_avg,wind_spd_avg,wind_spd_max_dir,wind_spd_gust,battery_voltage,lat,long
2023-09-30 00:04:00+00:00,346.0,2.76,344.0,3.04,12.41,47.59359,-54.27349
2023-09-30 00:14:01+00:00,338.0,2.96,334.0,3.2,12.41,47.59359,-54.27349
2023-09-30 00:24:01+00:00,359.0,4.02,355.0,4.9,12.41,47.59359,-54.27349
2023-09-30 00:34:01+00:00,0.0,4.87,1.0,5.19,12.41,47.59359,-54.27349
2023-09-30 00:44:01+00:00,352.0,3.75,353.0,4.75,12.41,47.59359,-54.27349
2023-09-30 00:54:01+00:00,81.0,3.39,68.0,4.4,12.41,47.59359,-54.27349
2023-09-30 01:04:01+00:00,82.0,2.97,75.0,4.22,12.41,47.59359,-54.27349
2023-09-30 01:14:01+00:00,102.0,2.03,108.0,3.0,12.41,47.59359,-54.27349
2023-09-30 01:24:01+00:00,69.0,3.4,72.0,3.75,12.41,47.59359,-54.27349
2023-09-30 01:34:01+00:00,73.0,3.73,73.0,4.15,12.41,47.59359,-54.27349
2023-09-30 01:44:01+00:00,52.0,3.97,56.0,4.76,12.41,47.59359,-54.27349
2023-09-30 01:54:01+00:00,74.0,3.27,68.0,3.82,12.41,47.59359,-54.27349
2023-09-30 02:04:01+00:00,68.0,2.96,57.0,3.47,12.41,47.59359,-54.27349
2023-09-30 02:14:01+00:00,76.0,2.79,75.0,3.26,12.33,47.59359,-54.27349
2023-09-30 02:24:01+00:00,64.0,3.42,61.0,3.71,12.33,47.59359,-54.27349
2023-09-30 02:34:01+00:00,57.0,3.79,57.0,4.12,12.33,47.59359,-54.27349
2023-09-30 02:44:01+00:00,62.0,3.78,60.0,4.2,12.33,47.59359,-54.27349
2023-09-30 02:54:01+00:00,70.0,4.79,69.0,5.15,12.33,47.59359,-54.27349
2023-09-30 03:04:01+00:00,55.0,4.28,52.0,5.04,12.33,47.59359,-54.27349
2023-09-30 03:14:01+00:00,42.0,5.76,39.0,6.49,12.33,47.59359,-54.27349
2023-09-30 03:24:01+00:00,42.0,5.76,45.0,6.31,12.33,47.59359,-54.27349
2023-09-30 03:34:01+00:00,42.0,6.13,40.0,6.57,12.33,47.59359,-54.27349
2023-09-30 03:44:01+00:00,48.0,5.57,42.0,6.47,12.33,47.59359,-54.27349
2023-09-30 03:54:01+00:00,53.0,5.79,52.0,6.57,12.33,47.59359,-54.27349
2023-09-30 04:04:01+00:00,49.0,6.44,53.0,7.17,12.33,47.59359,-54.27349
2023-09-30 04:14:01+00:00,52.0,5.91,49.0,6.46,12.33,47.59359,-54.27349
2023-09-30 04:24:01+00:00,48.0,5.59,46.0,6.03,12.33,47.59359,-54.27349
2023-09-30 04:34:01+00:00,53.0,4.95,50.0,5.57,12.33,47.59359,-54.27349
2023-09-30 04:44:01+00:00,52.0,5.17,45.0,5.81,12.33,47.59359,-54.27349
2023-09-30 04:54:01+00:00,66.0,4.13,59.0,4.87,12.33,47.59359,-54.27349
2023-09-30 05:04:01+00:00,59.0,4.2,55.0,4.91,12.33,47.59359,-54.27349
2023-09-30 05:14:01+00:00,65.0,4.31,53.0,4.75,12.33,47.59359,-54.27349
2023-09-30 05:24:01+00:00,60.0,4.27,57.0,5.23,12.33,47.59359,-54.27349
2023-09-30 05:34:01+00:00,53.0,4.53,49.0,5.11,12.33,47.59359,-54.27349
2023-09-30 05:44:01+00:00,49.0,3.69,50.0,4.57,12.33,47.59359,-54.27349
2023-09-30 05:54:01+00:00,61.0,3.66,58.0,4.16,12.33,47.59359,-54.27349
2023-09-30 06:04:01+00:00,49.0,3.61,47.0,4.33,12.33,47.59359,-54.27349
2023-09-30 06:14:00+00:00,52.0,3.23,55.0,3.63,12.25,47.59359,-54.27349
2023-09-30 06:24:00+00:00,59.0,3.0,58.0,3.48,12.25,47.59359,-54.27349
2023-09-30 06:34:00+00:00,61.0,2.01,61.0,2.66,12.25,47.59359,-54.27349
2023-09-30 06:44:00+00:00,61.0,1.78,45.0,2.61,12.25,47.59359,-54.27349
2023-09-30 06:54:00+00:00,63.0,2.38,57.0,2.73,12.25,47.59359,-54.27349
2023-09-30 07:04:00+00:00,17.0,3.61,19.0,4.73,12.25,47.59359,-54.27349
2023-09-30 07:14:00+00:00,31.0,2.51,26.0,3.49,12.17,47.59359,-54.27349
2023-09-30 07:24:00+00:00,71.0,2.47,69.0,3.42,12.17,47.59359,-54.27349
2023-09-30 07:34:00+00:00,59.0,2.26,53.0,2.99,12.17,47.59359,-54.27349
2023-09-30 07:44:00+00:00,47.0,3.41,50.0,4.14,12.17,47.59359,-54.27349
2023-09-30 07:54:00+00:00,37.0,4.66,36.0,5.07,12.17,47.59359,-54.27349
2023-09-30 08:04:00+00:00,41.0,4.0,35.0,4.53,12.17,47.59359,-54.27349
2023-09-30 08:14:00+00:00,25.0,3.9,26.0,4.61,12.17,47.59359,-54.27349
2023-09-30 08:24:00+00:00,4.0,4.49,5.0,5.06,12.17,47.59359,-54.27349
2023-09-30 08:34:00+00:00,19.0,5.01,19.0,5.67,12.17,47.59359,-54.27349
2023-09-30 08:44:00+00:00,10.0,4.47,7.0,4.87,12.17,47.59359,-54.27349
2023-09-30 08:54:00+00:00,16.0,5.09,16.0,5.66,12.17,47.59359,-54.27349
2023-09-30 09:04:00+00:00,11.0,4.15,15.0,4.75,12.17,47.59359,-54.27349
2023-09-30 09:14:00+00:00,11.0,3.92,11.0,5.17,12.17,47.59359,-54.27349
2023-09-30 09:24:00+00:00,20.0,3.24,23.0,3.78,12.17,47.59359,-54.27349
2023-09-30 09:34:00+00:00,10.0,3.33,17.0,3.66,12.17,47.59359,-54.27349
2023-09-30 09:44:00+00:00,10.0,3.31,15.0,3.81,12.17,47.59359,-54.27349
2023-09-30 09:54:00+00:00,15.0,2.89,11.0,3.23,12.17,47.59359,-54.27349
2023-09-30 10:04:00+00:00,18.0,3.49,17.0,3.82,12.17,47.59359,-54.27349
2023-09-30 10:14:00+00:00,10.0,3.58,3.0,4.1,12.49,47.59359,-54.27349
2023-09-30 10:24:00+00:00,11.0,3.53,14.0,4.18,12.49,47.59359,-54.27349
2023-09-30 10:34:00+00:00,8.0,3.5,4.0,3.85,12.49,47.59359,-54.27349
2023-09-30 10:44:00+00:00,3.0,3.06,2.0,3.38,12.49,47.59359,-54.27349
2023-09-30 10:54:00+00:00,13.0,3.21,14.0,3.6,12.49,47.59359,-54.27349
2023-09-30 11:04:00+00:00,9.0,3.24,19.0,3.8,12.49,47.59359,-54.27349
2023-09-30 11:14:01+00:00,14.0,3.08,18.0,3.61,13.84,47.59359,-54.27349
2023-09-30 11:24:01+00:00,5.0,3.25,1.0,3.74,13.84,47.59359,-54.27349
2023-09-30 11:34:01+00:00,0.0,3.18,3.0,3.54,13.84,47.59359,-54.27349
2023-09-30 11:44:01+00:00,14.0,2.62,11.0,3.04,13.84,47.59359,-54.27349
2023-09-30 11:54:01+00:00,25.0,3.25,22.0,3.65,13.84,47.59359,-54.27349
2023-09-30 12:04:01+00:00,27.0,2.66,31.0,3.15,13.84,47.59359,-54.27349
2023-09-30 12:14:01+00:00,13.0,2.65,29.0,3.12,14.32,47.59359,-54.27349
2023-09-30 12:24:01+00:00,14.0,2.44,19.0,3.0,14.32,47.59359,-54.27349
2023-09-30 12:34:01+00:00,14.0,2.4,30.0,2.95,14.32,47.59359,-54.27349
2023-09-30 12:44:01+00:00,16.0,2.97,18.0,3.27,14.32,47.59359,-54.27349
2023-09-30 12:54:01+00:00,27.0,2.89,34.0,3.53,14.32,47.59359,-54.27349
2023-09-30 13:04:01+00:00,29.0,2.87,38.0,3.49,14.32,47.59359,-54.27349
2023-09-30 13:14:01+00:00,43.0,2.48,43.0,2.88,14.4,47.59359,-54.27349
2023-09-30 13:24:01+00:00,45.0,2.14,47.0,2.5,14.4,47.59359,-54.27349
2023-09-30 13:34:01+00:00,48.0,1.42,40.0,1.76,14.4,47.59359,-54.27349
2023-09-30 13:44:01+00:00,38.0,1.42,38.0,1.79,14.4,47.59359,-54.27349
2023-09-30 13:54:01+00:00,41.0,1.47,47.0,1.75,14.4,47.59359,-54.27349
2023-09-30 14:04:01+00:00,43.0,1.23,45.0,1.53,14.4,47.59359,-54.27349
2023-09-30 14:14:00+00:00,0.0,0.59,346.0,0.86,14.16,47.59359,-54.27349
2023-09-30 14:24:00+00:00,282.0,0.09,291.0,0.58,14.16,47.59359,-54.27349
2023-09-30 14:34:00+00:00,275.0,0.31,270.0,0.51,14.16,47.59359,-54.27349
2023-09-30 14:44:00+00:00,271.0,0.46,262.0,0.63,14.16,47.59359,-54.27349
2023-09-30 14:54:00+00:00,309.0,0.28,279.0,0.51,14.16,47.59359,-54.27349
2023-09-30 15:04:00+00:00,96.0,0.17,108.0,0.31,14.16,47.59359,-54.27349
2023-09-30 15:14:00+00:00,311.0,0.43,327.0,0.87,13.53,47.59359,-54.27349
2023-09-30 15:24:00+00:00,95.0,0.45,93.0,0.6,13.53,47.59359,-54.27349
2023-09-30 15:34:00+00:00,60.0,1.29,59.0,1.44,13.53,47.59359,-54.27349
2023-09-30 15:44:00+00:00,87.0,0.55,71.0,0.76,13.53,47.59359,-54.27349
2023-09-30 15:54:00+00:00,100.0,0.16,128.0,0.37,13.53,47.59359,-54.27349
2023-09-30 16:04:00+00:00,156.0,1.13,147.0,1.29,13.53,47.59359,-54.27349
2023-09-30 16:14:00+00:00,145.0,0.89,144.0,0.99,14.24,47.59359,-54.27349
2023-09-30 16:24:00+00:00,171.0,0.97,172.0,1.02,14.24,47.59359,-54.27349
2023-09-30 16:34:00+00:00,222.0,1.59,223.0,1.73,14.24,47.59359,-54.27349
2023-09-30 16:44:00+00:00,220.0,1.14,224.0,1.28,14.24,47.59359,-54.27349
2023-09-30 16:54:00+00:00,207.0,0.57,209.0,1.06,14.24,47.59359,-54.27349
2023-09-30 17:04:00+00:00,235.0,1.11,238.0,1.29,14.24,47.59359,-54.27349
2023-09-30 17:14:00+00:00,242.0,1.43,239.0,1.79,13.6,47.59359,-54.27349
2023-09-30 17:24:00+00:00,256.0,2.19,256.0,2.36,13.6,47.59359,-54.27349
2023-09-30 17:34:00+00:00,249.0,2.0,249.0,2.1,13.6,47.59359,-54.27349
2023-09-30 17:44:00+00:00,253.0,1.96,254.0,2.1,13.6,47.59359,-54.27349
2023-09-30 17:54:00+00:00,247.0,2.84,246.0,3.19,13.6,47.59359,-54.27349
2023-09-30 18:04:00+00:00,238.0,2.5,239.0,2.71,13.6,47.59359,-54.27349
2023-09-30 18:14:00+00:00,233.0,2.53,233.0,3.0,14.16,47.59359,-54.27349
2023-09-30 18:24:00+00:00,236.0,3.53,235.0,3.82,14.16,47.59359,-54.27349
2023-09-30 18:34:00+00:00,218.0,3.31,225.0,3.67,14.16,47.59359,-54.27349
2023-09-30 18:44:00+00:00,218.0,3.54,216.0,3.84,14.16,47.59359,-54.27349
2023-09-30 18:54:00+00:00,222.0,5.1,223.0,5.44,14.16,47.59359,-54.27349
2023-09-30 19:04:00+00:00,216.0,6.43,213.0,7.08,14.16,47.59359,-54.27349
2023-09-30 19:14:01+00:00,219.0,7.17,219.0,7.74,13.84,47.59359,-54.27349
2023-09-30 19:24:01+00:00,215.0,5.61,216.0,6.47,13.84,47.59359,-54.27349
2023-09-30 19:34:01+00:00,209.0,5.59,203.0,6.19,13.84,47.59359,-54.27349
2023-09-30 19:44:01+00:00,220.0,4.69,214.0,5.28,13.84,47.59359,-54.27349
2023-09-30 19:54:01+00:00,215.0,5.63,213.0,6.07,13.84,47.59359,-54.27349
2023-09-30 20:04:01+00:00,210.0,6.67,209.0,7.44,13.84,47.59359,-54.27349
2023-09-30 20:14:00+00:00,218.0,5.85,218.0,6.53,13.6,47.59359,-54.27349
2023-09-30 20:24:00+00:00,206.0,5.92,203.0,6.31,13.6,47.59359,-54.27349
2023-09-30 20:34:00+00:00,204.0,4.49,207.0,5.06,13.6,47.59359,-54.27349
2023-09-30 20:44:00+00:00,212.0,6.14,212.0,6.84,13.6,47.59359,-54.27349
2023-09-30 20:54:00+00:00,219.0,5.05,213.0,5.63,13.6,47.59359,-54.27349
2023-09-30 21:04:00+00:00,215.0,5.43,215.0,6.12,13.6,47.59359,-54.27349
2023-09-30 21:14:00+00:00,214.0,5.85,214.0,6.49,13.13,47.59359,-54.27349
2023-09-30 21:24:00+00:00,224.0,3.76,225.0,4.29,13.13,47.59359,-54.27349
2023-09-30 21:34:00+00:00,209.0,3.64,211.0,3.87,13.13,47.59359,-54.27349
2023-09-30 21:44:00+00:00,176.0,4.46,183.0,4.69,13.13,47.59359,-54.27349
2023-09-30 21:54:00+00:00,175.0,3.53,178.0,3.91,13.13,47.59359,-54.27349
2023-09-30 22:04:00+00:00,189.0,4.05,189.0,4.26,13.13,47.59359,-54.27349
2023-09-30 22:14:00+00:00,192.0,4.08,197.0,4.35,12.57,47.59359,-54.27349
2023-09-30 22:24:00+00:00,203.0,4.87,207.0,5.7,12.57,47.59359,-54.27349
2023-09-30 22:34:00+00:00,204.0,5.44,195.0,6.4,12.57,47.59359,-54.27349
2023-09-30 22:44:00+00:00,204.0,6.13,199.0,6.83,12.57,47.59359,-54.27349
2023-09-30 22:54:00+00:00,198.0,5.51,200.0,6.14,12.57,47.59359,-54.27349
2023-09-30 23:04:00+00:00,204.0,6.06,197.0,7.07,12.57,47.59359,-54.27349
2023-09-30 23:14:00+00:00,211.0,4.77,212.0,6.29,12.49,47.59359,-54.27349
2023-09-30 23:24:00+00:00,210.0,4.28,208.0,4.88,12.49,47.59359,-54.27349
2023-09-30 23:34:00+00:00,214.0,3.84,214.0,4.43,12.49,47.59359,-54.27349
2023-09-30 23:44:00+00:00,212.0,3.62,216.0,4.01,12.49,47.59359,-54.27349
2023-09-30 23:54:00+00:00,229.0,3.2,234.0,3.64,12.49,47.59359,-54.27349
